This demonstration page uses our WeatherBlox Daily Observations layout. Learn more.

Left ArrowRight Arrow

Hourly Observations for July 18, 2015

Temp ( °F °C ) Dew Point ( °F °C ) Humidity (%) Winds ( mph kmh ) Pressure ( in mb ) Visibility ( mi km ) Precip ( " mm )
12:53 am 00:53 Partly Cloudy 84 28.9 51 10.6 32 32 ENE 3 6 29.67 1005 10 16 0.00 0.00
1:53 am 01:53 Partly Cloudy 81 27.2 51 10.6 35 35 N 6 9 29.68 1005 10 16 0.00 0.00
2:53 am 02:53 Clear 82 27.8 53 11.7 37 37 W 5 7 29.70 1006 10 16 0.00 0.00
3:53 am 03:53 Partly Cloudy 81 27.2 53 11.7 38 38 Calm 29.72 1006 10 16 0.00 0.00
4:53 am 04:53 Mostly Cloudy 80 26.7 54 12.2 41 41 WSW 3 6 29.75 1007 10 16 0.00 0.00
5:53 am 05:53 Cloudy 78 25.6 53 11.7 42 42 WSW 5 7 29.77 1008 10 16 0.00 0.00
6:53 am 06:53 Mostly Cloudy 78 25.6 53 11.7 42 42 SW 5 7 29.80 1009 10 16 0.00 0.00
7:53 am 07:53 Sunny 79 26.1 52 11.1 39 39 SW 9 15 29.82 1010 10 16 0.00 0.00
8:53 am 08:53 Partly Cloudy 81 27.2 49 9.4 33 33 SSW 6 9 29.83 1010 10 16 0.00 0.00
9:53 am 09:53 Sunny 84 28.9 50 10 31 31 SW 7 11 29.83 1010 10 16 0.00 0.00
10:53 am 10:53 Sunny 88 31.1 50 10 27 27 SW 6 9 29.83 1010 10 16 0.00 0.00
11:53 am 11:53 Sunny 90 32.2 49 9.4 24 24 VRB 5 7 29.84 1010 10 16 0.00 0.00
12:53 pm 12:53 Sunny 93 33.9 49 9.4 22 22 SW 9 15 29.84 1010 10 16 0.00 0.00
1:53 pm 13:53 Sunny 97 36.1 46 7.8 17 17 SSE 13 20 29.83 1010 10 16 0.00 0.00
2:53 pm 14:53 Sunny 97 36.1 45 7.2 17 17 S 12 19 29.82 1010 10 16 0.00 0.00
3:53 pm 15:53 Sunny 99 37.2 41 5 14 14 S 13 20 29.80 1009 10 16 0.00 0.00
4:53 pm 16:53 Sunny 99 37.2 38 3.3 12 12 SSW 10 17 29.79 1009 10 16 0.00 0.00
5:53 pm 17:53 Sunny 98 36.7 45 7.2 16 16 SE 10 17 29.78 1009 10 16 0.00 0.00
6:53 pm 18:53 Sunny 96 35.6 46 7.8 18 18 SSE 13 20 29.79 1009 10 16 0.00 0.00
7:53 pm 19:53 Sunny 94 34.4 46 7.8 19 19 SSE 12 19 29.81 1009 10 16 0.00 0.00
8:53 pm 20:53 Clear 89 31.7 48 8.9 24 24 S 8 13 29.82 1010 10 16 0.00 0.00
9:53 pm 21:53 Clear 86 30 48 8.9 27 27 Calm 29.85 1011 10 16 0.00 0.00
10:53 pm 22:53 Clear 82 27.8 50 10 33 33 Calm 29.88 1012 10 16 0.00 0.00
11:53 pm 23:53 Clear 80 26.7 52 11.1 38 38 Calm 29.90 1013 10 16 0.00 0.00

Powered by AerisWeather